[[{"header":{"parameterUnit":"m.s-1","parameterCategory":1,"la1":30.2991,"la2":30.254,"lo1":-89.0895,"lo2":-89.0444,"dy":0.0017,"dx":0.0017,"nx":28,"ny":28,"refTime":"2025-04-04T03:00:00:Z","depth":0,"parameterNumber":2,"parameterNumberName":"U-component_of_WINDS"},"data":[0,0,0,0,0,0,0,0,0,0,0,0,0,0,0,0,0,0,0,0,0,0,0,0,0,0,0,0,0,0,0,0,0,0,0,0,0,0,0,0,0,0,0,0,0,0,0,0,0,0,0,0,0,0,0,0,0,0,-5.6551,-5.6553,0,-5.6674,-5.6675,-5.6676,-5.6644,-5.6641,-5.6639,-5.6637,-5.6762,-5.6768,-5.6773,0,0,0,0,0,0,0,0,0,0,0,0,0,-5.629,-5.6295,-5.6551,-5.6553,-5.6554,-5.6673,-5.6675,-5.6677,-5.6644,-5.6641,-5.6638,-5.6636,-5.676,-5.6767,-5.6774,0,0,0,0,0,0,0,0,0,0,0,0,0,-5.6407,-5.6297,-5.6551,-5.6552,-5.6554,-5.6673,-5.6675,-5.6677,-5.6645,-5.6641,-5.6638,-5.6634,-5.6758,-5.6766,-5.6775,-5.69,0,0,-5.68,-5.6804,0,0,0,0,0,0,0,0,-5.6401,-5.6417,-5.6551,-5.6553,-5.6554,-5.664,-5.6629,-5.6752,-5.6646,-5.661,-5.6637,-5.6632,-5.6724,-5.6735,-5.6766,-5.6906,-5.6911,-5.6801,-5.6806,-5.681,-5.6812,0,0,0,0,0,0,0,-5.6393,-5.6411,-5.6599,-5.6553,-5.6555,-5.6547,-5.656,-5.6652,-5.6686,-5.6613,-5.6611,-5.6626,-5.6725,-5.6758,-5.6769,-5.6913,-5.6801,-5.6808,-5.6814,-5.6817,-5.7161,-5.7165,0,0,0,0,0,0,-5.6383,-5.6405,-5.6596,-5.6603,-5.6467,-5.6555,-5.6569,-5.6616,-5.6685,-5.6692,-5.6629,-5.6624,-5.6746,-5.6759,-5.6773,-5.6923,-5.681,-5.6818,-5.6822,-5.7157,-5.7162,-5.7166,0,0,0,0,0,0,-5.6378,-5.64,-5.6591,-5.6504,-5.6527,-5.6563,-5.6616,-5.662,-5.6654,-5.6697,-5.6703,-5.6657,-5.6743,-5.6761,-5.6868,-5.6927,-5.6821,-5.6829,-5.7152,-5.7158,-5.7164,-5.7224,0,0,0,0,0,0,-5.637,-5.6399,-5.6446,-5.6505,-5.6532,-5.6683,-5.662,-5.6625,-5.6668,-5.6663,-5.6725,-5.6732,-5.6742,-5.6856,-5.6877,-5.6937,-5.6836,-5.7147,-5.7155,-5.7162,-5.7217,-5.7232,-5.7244,0,0,0,0,0,-5.6361,-5.6458,-5.6449,-5.6472,-5.6592,-5.6687,-5.6702,-5.6712,-5.6673,-5.6721,-5.675,-5.673,-5.6918,-5.6867,-5.689,-5.6954,-5.7143,-5.7153,-5.7162,-5.7211,-5.7229,-5.7244,0,0,0,0,0,0,-5.6405,-5.6466,-5.6456,-5.6575,-5.6626,-5.6681,-5.6742,-5.6731,-5.6793,-5.6786,-5.6795,-5.681,-5.6919,-5.6948,-5.689,-5.7079,-5.7025,-5.7039,-5.7055,-5.7072,-5.7085,-5.7075,-5.6843,0,0,0,0,0,-5.6429,-5.65,-5.655,-5.665,-5.6677,-5.6705,-5.6747,-5.675,-5.6803,-5.6825,-5.686,-5.6913,-5.6984,-5.703,-5.7098,-5.7223,-5.7235,-5.7278,-5.7291,-5.7302,-5.7313,-5.7381,-5.74,-5.7196,-5.7196,-5.7196,0,0,-5.6478,-5.652,-5.6565,-5.666,-5.67,-5.6774,-5.6723,-5.6804,-5.6859,-5.6837,-5.6939,-5.6968,-5.7028,-5.7144,-5.7197,-5.7171,-5.7373,-5.7314,-5.7322,-5.7328,-5.7392,-5.7411,-5.7428,-5.7203,-5.7202,-5.7201,0,0,-5.6604,-5.6645,-5.6732,-5.6773,-5.6835,-5.6853,-5.6875,-5.6932,-5.695,-5.7054,-5.7039,-5.7105,-5.7227,-5.727,-5.7308,-5.7453,-5.7437,-5.7476,-5.7545,-5.761,-5.7626,-5.764,-5.769,-5.7708,-5.7487,-5.7488,-5.7488,0,-5.6657,-5.6768,-5.6778,-5.686,-5.6902,-5.6887,-5.6976,-5.7016,-5.7096,-5.7126,-5.7097,-5.725,-5.7289,-5.7414,-5.745,-5.7482,-5.7506,-5.7466,-5.7623,-5.7637,-5.7651,-5.7698,-5.7717,-5.7492,-5.7491,-5.7491,-5.749,0,-5.6829,-5.6906,-5.697,-5.7048,-5.7098,-5.7183,-5.7206,-5.7256,-5.7256,-5.7278,-5.7383,-5.7431,-5.7507,-5.7538,-5.7539,-5.7664,-5.7646,-5.762,-5.7566,-5.7674,-5.7719,-5.7737,-5.7497,-5.7496,-5.7495,-5.7494,0,0,-5.6983,-5.7067,-5.709,-5.7125,-5.7193,-5.7253,-5.7338,-5.7413,-5.7455,-5.7512,-5.7582,-5.7688,-5.7664,-5.7707,-5.7713,-5.7771,-5.7881,-5.7738,-5.774,-5.7761,-5.8021,-5.8037,-5.8058,-5.7873,-5.7877,-5.7879,-5.8015,0,-5.7113,-5.7262,-5.7275,-5.7408,-5.7479,-5.7467,-5.7541,-5.7591,-5.7615,-5.7679,-5.7705,-5.7779,-5.7743,-5.7769,-5.7826,-5.7856,-5.7933,-5.7847,-5.7937,-5.794,-5.7919,-5.8082,-5.8099,-5.8224,-5.8032,-5.8036,-5.8038,0,-5.7284,-5.7346,-5.7486,-5.7545,-5.7575,-5.7641,-5.7711,-5.7773,-5.783,-5.7843,-5.7892,-5.7891,-5.7978,-5.7924,-5.8044,-5.7985,-5.8024,-5.8045,-5.805,-5.8055,-5.7993,-5.8089,-5.8265,-5.8282,-5.8066,-5.8064,-5.8062,0,-5.7379,-5.7498,-5.7597,-5.7628,-5.7699,-5.7746,-5.7778,-5.7831,-5.7875,-5.7938,-5.7966,-5.8038,-5.8077,-5.8133,-5.8151,-5.811,-5.827,-5.8218,-5.8283,-5.8282,-5.8314,-5.8311,-5.8495,-5.8344,-5.8344,-5.8344,-5.8343,0,-5.7521,-5.7607,-5.7641,-5.7701,-5.7797,-5.7812,-5.7907,-5.7937,-5.7985,-5.8051,-5.8047,-5.8109,-5.8131,-5.8197,-5.8213,-5.8309,-5.8327,-5.834,-5.8342,-5.8338,-5.8336,-5.8361,-5.8351,-5.8349,-5.8348,-5.8347,-5.8346,0,-5.7641,-5.7668,-5.7775,-5.7834,-5.7851,-5.7919,-5.7969,-5.8028,-5.8052,-5.8136,-5.8157,-5.8194,-5.8272,-5.8297,-5.8391,-5.8402,-5.8514,-5.851,-5.8494,-5.8493,-5.8556,-5.8548,-5.8759,-5.8787,-5.8621,-5.8623,-5.8624,0,-5.7728,-5.7794,-5.7861,-5.7905,-5.7938,-5.801,-5.8055,-5.8074,-5.8122,-5.8192,-5.8242,-5.832,-5.8382,-5.8507,-5.8543,-5.8615,-5.8611,-5.8681,-5.8622,-5.8616,-5.8609,-5.8604,-5.8609,-5.869,-5.8692,-5.8693,-5.8694,0,-5.7879,-5.789,-5.7955,-5.8027,-5.8081,-5.8138,-5.8193,-5.8229,-5.8256,-5.831,-5.839,-5.8438,-5.8535,-5.8611,-5.8685,-5.8719,-5.8711,-5.8713,-5.8732,-5.8726,-5.8713,-5.8718,-5.852,-5.8707,-5.8706,-5.8705,-5.8704,-5.8704,-5.7984,-5.8041,-5.8097,-5.8171,-5.8214,-5.8266,-5.8324,-5.8356,-5.8422,-5.8502,-5.851,-5.8595,-5.8652,-5.875,-5.8787,-5.8855,-5.8835,-5.8862,-5.8868,-5.8874,-5.8877,-5.8706,-5.8869,-5.8868,-5.8868,-5.8868,-5.8868,0,-5.8132,-5.8168,-5.8236,-5.8313,-5.8371,-5.8361,-5.8421,-5.847,-5.8545,-5.8599,-5.8661,-5.8752,-5.8827,-5.887,-5.8944,-5.899,-5.8988,-5.9009,-5.9004,-5.9011,-5.8892,-5.8867,-5.9009,-5.9009,-5.9009,-5.9009,-5.9009,-5.9009,-5.8216,-5.8312,-5.8329,-5.8447,-5.8483,-5.8566,-5.8602,-5.865,-5.8692,-5.8794,-5.8856,-5.8884,-5.8933,-5.9012,-5.908,-5.9091,-5.9117,-5.9139,-5.9148,-5.9035,-5.902,-5.9006,-5.8982,-5.9146,-5.9146,-5.9261,-5.9262,-5.9263]},{"header":{"parameterUnit":"m.s-1","parameterCategory":1,"la1":30.2991,"la2":30.254,"lo1":-89.0895,"lo2":-89.0444,"dy":0.0017,"dx":0.0017,"nx":28,"ny":28,"refTime":"2025-04-04T03:00:00:Z","depth":0,"parameterNumber":3,"parameterNumberName":"V-component_of_WINDS"},"data":[0,0,0,0,0,0,0,0,0,0,0,0,0,0,0,0,0,0,0,0,0,0,0,0,0,0,0,0,0,0,0,0,0,0,0,0,0,0,0,0,0,0,0,0,0,0,0,0,0,0,0,0,0,0,0,0,0,0,3.0558,3.0559,0,3.0708,3.071,3.0712,3.0764,3.0764,3.0763,3.0763,3.0916,3.092,3.0925,0,0,0,0,0,0,0,0,0,0,0,0,0,3.0317,3.0321,3.0558,3.056,3.0561,3.0708,3.071,3.0712,3.0765,3.0764,3.0763,3.0763,3.0914,3.0919,3.0925,0,0,0,0,0,0,0,0,0,0,0,0,0,3.044,3.0322,3.0557,3.0605,3.0611,3.0708,3.071,3.0713,3.0765,3.0764,3.0763,3.0762,3.0912,3.0919,3.0926,3.0985,0,0,3.0947,3.095,0,0,0,0,0,0,0,0,3.0432,3.0448,3.0596,3.0602,3.0609,3.0717,3.0681,3.0804,3.0765,3.0706,3.0763,3.0762,3.085,3.0862,3.0892,3.0992,3.0999,3.0947,3.0952,3.0955,3.0956,0,0,0,0,0,0,0,3.0424,3.0442,3.0617,3.0598,3.0606,3.062,3.0636,3.0705,3.0781,3.0711,3.0716,3.0733,3.0853,3.0885,3.0896,3.1001,3.0947,3.0953,3.0958,3.096,3.1162,3.1163,0,0,0,0,0,0,3.0407,3.0435,3.0612,3.0622,3.0517,3.0625,3.0643,3.0683,3.078,3.0794,3.0733,3.0735,3.0874,3.0888,3.0902,3.098,3.0954,3.0961,3.0965,3.1161,3.1162,3.1163,0,0,0,0,0,0,3.0402,3.0423,3.0606,3.053,3.0554,3.063,3.0674,3.0686,3.0718,3.0797,3.0811,3.0752,3.0874,3.0892,3.0965,3.0986,3.0964,3.097,3.1159,3.1161,3.1163,3.1136,0,0,0,0,0,0,3.0395,3.042,3.0443,3.053,3.0558,3.0667,3.0675,3.069,3.073,3.0734,3.0818,3.0831,3.0874,3.0954,3.0972,3.0995,3.0976,3.1158,3.116,3.1162,3.1135,3.1137,3.1138,0,0,0,0,0,3.0386,3.0429,3.0444,3.0465,3.0588,3.0668,3.0684,3.0733,3.0732,3.0756,3.0807,3.0829,3.0981,3.0961,3.0981,3.1007,3.1156,3.1159,3.1162,3.1135,3.1136,3.1138,0,0,0,0,0,0,3.0341,3.0441,3.0459,3.0531,3.0591,3.0677,3.0708,3.0733,3.0794,3.0794,3.0852,3.0871,3.094,3.0981,3.0957,3.1072,3.107,3.1077,3.1043,3.1045,3.1046,3.1035,3.0981,0,0,0,0,0,3.034,3.0396,3.048,3.0535,3.0565,3.0631,3.0668,3.0701,3.0765,3.079,3.0847,3.0908,3.097,3.101,3.1071,3.1142,3.1162,3.117,3.1171,3.1171,3.1177,3.1221,3.1226,3.1172,3.1172,3.1172,0,0,3.0337,3.0399,3.043,3.0528,3.0578,3.0637,3.0652,3.0712,3.0756,3.0799,3.0873,3.0916,3.0989,3.1062,3.1097,3.1098,3.1196,3.1175,3.1175,3.118,3.1224,3.1229,3.1233,3.1174,3.1174,3.1174,0,0,3.0363,3.0414,3.0467,3.0518,3.0595,3.0639,3.0652,3.0736,3.0767,3.0841,3.0876,3.0929,3.1034,3.1086,3.1125,3.1174,3.1197,3.1192,3.1199,3.1241,3.1245,3.1249,3.1269,3.1275,3.1197,3.1197,3.1197,0,3.0349,3.0438,3.0491,3.0551,3.0594,3.0637,3.0693,3.0739,3.0831,3.086,3.0861,3.0996,3.1047,3.1135,3.1147,3.1177,3.1195,3.1183,3.124,3.1245,3.1249,3.1269,3.1276,3.1196,3.1196,3.1196,3.1197,0,3.042,3.0481,3.0515,3.0605,3.0652,3.0709,3.0771,3.0812,3.0842,3.0887,3.0964,3.1028,3.1105,3.1128,3.1156,3.122,3.1219,3.1229,3.1228,3.1253,3.1272,3.128,3.1195,3.1195,3.1196,3.1196,0,0,3.0419,3.054,3.0552,3.0595,3.0684,3.0733,3.0793,3.0869,3.0904,3.0967,3.102,3.111,3.1121,3.1166,3.1201,3.1238,3.1276,3.1244,3.1247,3.1249,3.1353,3.1346,3.1353,3.1292,3.1293,3.1294,3.1348,0,3.0457,3.0567,3.0618,3.0705,3.0764,3.0808,3.0861,3.0922,3.0966,3.1023,3.1071,3.1135,3.1143,3.1172,3.121,3.1263,3.1297,3.1259,3.1342,3.1345,3.1324,3.1363,3.1355,3.1402,3.1355,3.1356,3.1357,0,3.0516,3.0581,3.0675,3.0761,3.0787,3.0834,3.0909,3.0963,3.1034,3.1064,3.1116,3.1151,3.1217,3.1212,3.1305,3.1278,3.1315,3.1347,3.135,3.136,3.1353,3.1376,3.1418,3.1425,3.1369,3.1368,3.1368,0,3.0509,3.062,3.0691,3.0726,3.0827,3.086,3.0903,3.0974,3.1017,3.1083,3.1113,3.1185,3.1225,3.1281,3.1335,3.1326,3.1424,3.1422,3.1452,3.145,3.147,3.1468,3.152,3.1492,3.1492,3.1492,3.1491,0,3.0547,3.0603,3.069,3.0733,3.0799,3.0857,3.092,3.0967,3.103,3.1084,3.1126,3.1177,3.1244,3.1304,3.1346,3.1419,3.1435,3.1463,3.1473,3.146,3.1456,3.1485,3.1484,3.1494,3.1493,3.1493,3.1492,0,3.0549,3.061,3.0691,3.0781,3.0805,3.0849,3.0927,3.0972,3.102,3.1089,3.1108,3.1182,3.1255,3.1315,3.1408,3.1438,3.1514,3.1525,3.149,3.1496,3.1522,3.152,3.1595,3.1609,3.157,3.157,3.157,0,3.057,3.0615,3.0711,3.0751,3.0795,3.0859,3.0904,3.0965,3.101,3.1097,3.1132,3.1208,3.1272,3.1386,3.1448,3.1522,3.1536,3.1558,3.1547,3.1533,3.1539,3.1536,3.1542,3.1559,3.1559,3.1559,3.1559,0,3.0601,3.063,3.0694,3.077,3.0824,3.0886,3.095,3.098,3.1052,3.1102,3.1178,3.1227,3.1325,3.1401,3.1481,3.1527,3.1556,3.1562,3.1573,3.156,3.1539,3.1553,3.1494,3.156,3.156,3.156,3.156,3.156,3.0615,3.0658,3.0734,3.0805,3.086,3.0919,3.0967,3.1021,3.1085,3.1171,3.1202,3.128,3.1354,3.1465,3.1512,3.1574,3.1577,3.1592,3.1597,3.16,3.1599,3.1528,3.1589,3.1589,3.1589,3.1589,3.1589,0,3.065,3.0702,3.0767,3.0856,3.0912,3.0936,3.1008,3.1054,3.1122,3.1189,3.1252,3.134,3.1414,3.1484,3.1562,3.1599,3.1614,3.1618,3.1616,3.1627,3.1591,3.1574,3.1604,3.1604,3.1604,3.1604,3.1604,3.1604,3.0675,3.075,3.0788,3.0892,3.0943,3.1021,3.106,3.1116,3.117,3.1267,3.1329,3.1375,3.1443,3.1527,3.1597,3.1616,3.1644,3.1644,3.1666,3.1631,3.1629,3.1627,3.1612,3.1649,3.1649,3.1697,3.1697,3.1698]}]]